Location: ActonStarParty
(42.4766°N, 71.4538°W)
Time: 09:45:00
(UTC-04:00)

Cosmos 1300 - Visible Passes

Search period start: 26 May 2015 00:00
Search period end: 05 June 2015 00:00
Orbit: 521 x 524 km, 82.5° (Epoch: 25 May)

Date Brightness Start Highest point End Pass type
(mag) Time Alt. Az. Time Alt. Az. Time Alt. Az.
26 May 4.7 01:35:25 10° NNE 01:38:25 21° ENE 01:39:08 20° E visible
26 May 4.0 03:11:02 10° NNW 03:14:16 25° W 03:14:16 25° W visible
27 May 4.9 01:22:44 10° NNE 01:25:30 19° ENE 01:26:10 18° E visible
27 May 3.8 02:58:04 10° NNW 03:01:18 29° W 03:01:18 29° W visible
28 May 5.0 01:10:05 10° NNE 01:12:36 17° ENE 01:13:12 16° E visible
28 May 3.7 02:45:07 10° NNW 02:48:20 33° W 02:48:20 33° W visible
29 May 5.2 00:57:29 10° NE 00:59:41 15° ENE 01:00:15 15° E visible
29 May 3.5 02:32:10 10° NNW 02:35:24 37° WNW 02:35:24 37° WNW visible
30 May 5.3 00:44:57 10° NE 00:46:45 13° ENE 00:47:19 13° ENE visible
30 May 3.4 02:19:15 10° NNW 02:22:28 41° WNW 02:22:28 41° WNW visible
31 May 5.4 00:32:32 10° NE 00:33:49 12° ENE 00:34:24 11° ENE visible
31 May 3.3 02:06:20 10° NNW 02:09:32 46° WNW 02:09:32 46° WNW visible
01 Jun 5.5 00:20:40 10° ENE 00:20:51 10° ENE 00:21:17 10° ENE visible
01 Jun 3.2 01:53:24 10° NNW 01:56:38 51° NW 01:56:38 51° NW visible
02 Jun 3.2 01:40:30 10° NNW 01:43:44 56° NW 01:43:44 56° NW visible
03 Jun 3.1 01:27:36 10° N 01:30:50 59° NNW 01:30:50 59° NNW visible
04 Jun 3.2 01:14:42 10° N 01:17:57 60° N 01:17:57 60° N visible
